Date,TemperatureHighF,TemperatureAvgF,TemperatureLowF,DewpointHighF,DewpointAvgF,DewpointLowF,HumidityHigh,HumidityAvg,HumidityLow,PressureMaxIn,PressureMinIn,WindSpeedMaxMPH,WindSpeedAvgMPH,GustSpeedMaxMPH,PrecipitationSumIn
2013-2-1,34,28,21,17,8,3,58,43,27,30.07,29.58,12,4,19,0.01
2013-2-2,31,23,15,11,6,2,62,48,34,30.24,30.03,8,2,11,0.00
2013-2-3,26,23,18,22,20,12,96,85,56,30.04,29.71,5,0,7,0.00
2013-2-4,30,22,15,22,12,5,97,66,39,29.93,29.70,13,3,15,0.00
2013-2-5,28,24,18,22,13,8,91,65,50,30.01,29.92,4,0,7,0.00
2013-2-6,38,29,22,27,19,4,97,69,39,30.29,29.91,13,2,13,0.04
2013-2-7,33,23,14,9,3,-2,71,43,22,30.52,30.28,8,1,10,0.01
2013-2-8,32,25,16,31,21,7,99,87,48,30.48,29.60,12,2,15,0.00
2013-2-9,22,18,13,19,14,3,99,85,60,30.19,29.57,18,6,18,0.00
2013-2-10,46,20,0,14,5,-8,83,57,10,30.38,30.19,8,1,11,0.00
2013-2-11,37,27,13,37,25,9,99,92,81,30.34,29.59,4,0,5,0.00
2013-2-12,46,38,29,35,29,25,99,73,51,29.87,29.59,16,3,19,0.33
2013-2-13,47,33,23,28,25,21,93,74,41,29.86,29.67,7,1,8,0.32
2013-2-14,48,35,26,28,24,18,87,67,30,29.98,29.70,8,1,8,0.15
2013-2-15,54,38,28,34,30,23,99,77,44,29.99,29.88,9,2,11,0.18
2013-2-16,38,33,29,34,28,18,99,82,57,29.94,29.71,9,1,9,0.04
2013-2-17,29,21,16,20,11,0,96,68,42,29.70,29.38,24,7,24,0.00
2013-2-18,34,22,13,3,0,-9,55,39,15,30.15,29.67,20,6,20,0.02
2013-2-19,47,34,20,41,23,2,99,65,44,30.16,29.57,8,1,9,0.15
2013-2-20,39,32,25,39,20,10,99,65,40,29.77,29.52,14,5,15,0.14
2013-2-21,36,27,23,16,13,10,73,57,37,30.19,29.76,16,5,16,0.00
2013-2-22,42,30,19,26,20,16,88,68,40,30.38,30.19,8,1,10,0.00
2013-2-23,38,33,27,32,29,24,99,85,70,30.33,29.91,7,1,8,0.00
2013-2-24,34,32,30,34,32,30,99,99,99,29.91,29.68,7,0,10,0.39
2013-2-25,40,33,28,37,32,28,99,95,73,30.24,29.88,3,0,4,0.44
2013-2-26,44,34,26,40,30,26,99,85,57,30.33,30.15,8,1,11,0.12
2013-2-27,41,38,35,41,37,32,99,98,85,30.15,29.56,17,3,17,0.70
2013-2-28,48,37,32,40,35,32,99,93,73,29.63,29.52,4,0,7,0.40